EW4944 Weather Reports


Display with metric or nautical units.
time (UTC)temp
F
wind
direction
speed
MPH
gust
MPH
rain 1hr
in
rain 24hr
in
rain mn
in
humidity
%
barometer
mb
20260906012557 69 0.0 0.0 0.00 0.00 0.00 91 1011.6
20260906012056 68 0.0 0.0 0.00 0.00 0.00 90 1011.7
20260906011612 69 0.0 0.0 0.00 0.00 0.00 90 1011.5
20260906011055 69 0.0 0.0 0.00 0.00 0.00 90 1011.6
20260906010557 69 0.0 0.0 0.00 0.00 0.00 90 1011.4
20260906010107 69 0.0 0.0 0.00 0.00 0.00 90 1011.5
20260906005557 69 0.0 0.0 0.00 0.00 0.00 90 1011.4
20260906005057 69 0.0 0.0 0.00 0.00 0.00 89 1011.6
20260906004602 69 0.0 0.0 0.00 0.00 0.00 89 1011.4
20260906004055 69 0.0 0.0 0.00 0.00 0.00 89 1011.4
20260906003555 69 0.0 0.0 0.00 0.00 0.00 88 1011.3
20260906003105 70 0.0 0.0 0.00 0.00 0.00 88 1011.2
20260906002559 70 0.0 0.0 0.00 0.00 0.00 87 1011.0
20260906002056 70 0.0 0.0 0.00 0.00 0.00 86 1011.0
20260906001609 70 0.0 0.0 0.00 0.00 0.00 85 1011.0
20260906001056 70 0.0 0.0 0.00 0.00 0.00 84 1010.8
20260906000555 71 0.0 0.0 0.00 0.00 0.00 83 1010.7
20260906000109 71 0.0 0.0 0.00 0.00 0.00 82 1010.7
20260905235555 71 0.0 0.0 0.00 0.00 0.00 82 1010.7
20260905235055 70 0.0 0.0 0.00 0.00 0.00 82 1010.7
20260905234603 70 0.0 0.0 0.00 0.00 0.00 84 1010.5
20260905234101 70 0.0 0.0 0.00 0.00 0.00 85 1010.5
20260905233556 70 0.0 0.0 0.00 0.00 0.00 85 1010.3
20260905233106 70 0.0 0.0 0.00 0.00 0.00 85 1010.3
20260905232556 70 0.0 0.0 0.00 0.00 0.00 85 1010.4
20260905232056 70 0.0 0.0 0.00 0.00 0.00 84 1010.2
20260905231619 71 0.0 0.0 0.00 0.00 0.00 84 1010.2
20260905231100 71 0.0 0.0 0.00 0.00 0.00 83 1010.0
20260905230557 71 0.0 0.0 0.00 0.00 0.00 83 1010.2
20260905230108 71 0.0 0.0 0.00 0.00 0.00 82 1010.2
20260905225555 71 0.0 3.0 0.00 0.00 0.00 82 1010.1
20260905225055 71 0 0.0 3.0 0.00 0.00 0.00 82 1010.1
20260905224606 71 25 0.0 1.0 0.00 0.00 0.00 82 1010.1
20260905224058 71 0 0.0 0.0 0.00 0.00 0.00 82 1010.0
20260905223555 71 0 0.0 0.0 0.00 0.00 0.00 81 1010.1
20260905223105 71 0 0.0 2.0 0.00 0.00 0.00 81 1010.2
20260905222558 71 0 0.0 2.0 0.00 0.00 0.00 80 1010.1
20260905222057 72 26 0.0 2.0 0.00 0.00 0.00 80 1010.0
20260905221628 72 26 0.0 3.0 0.00 0.00 0.00 81 1009.8
20260905221055 72 26 0.0 3.0 0.00 0.00 0.00 80 1009.7
20260905220554 72 0 0.0 3.0 0.00 0.00 0.00 81 1009.8
20260905220104 72 0 1.0 3.0 0.00 0.00 0.00 80 1009.8
20260905215557 72 0 1.0 3.0 0.00 0.00 0.00 80 1009.8
20260905215058 72 0 1.0 5.0 0.00 0.00 0.00 79 1009.8
20260905214609 72 0 0.0 5.0 0.00 0.00 0.00 79 1009.8
20260905214057 73 30 0.0 4.0 0.00 0.00 0.00 78 1009.7
20260905213557 73 31 1.0 4.0 0.00 0.00 0.00 76 1009.6
20260905213105 73 0 1.0 6.0 0.00 0.00 0.00 77 1009.7
20260905212557 74 32 1.0 6.0 0.00 0.00 0.00 77 1009.7
20260905212057 73 34 2.0 6.0 0.00 0.00 0.00 76 1009.5
20260905211603 74 307 1.0 4.0 0.00 0.00 0.00 79 1009.5
20260905211057 74 299 1.0 4.0 0.00 0.00 0.00 77 1009.5
20260905210558 75 300 1.0 5.0 0.00 0.00 0.00 77 1009.5
20260905210114 75 300 2.0 5.0 0.00 0.00 0.00 75 1009.4
20260905205554 74 360 1.0 5.0 0.00 0.00 0.00 77 1009.4
20260905205057 74 17 1.0 5.0 0.00 0.00 0.00 77 1009.4
20260905204607 75 17 1.0 4.0 0.00 0.00 0.00 75 1009.3
20260905204054 75 17 2.0 4.0 0.00 0.00 0.00 77 1009.2
20260905203557 75 24 0.0 3.0 0.00 0.00 0.00 75 1009.2
20260905203100 75 0 1.0 3.0 0.00 0.00 0.00 73 1009.2
20260905202553 75 24 0.0 3.0 0.00 0.00 0.00 74 1009.3
20260905202057 75 0 1.0 3.0 0.00 0.00 0.00 76 1009.3
20260905201607 75 0 0.0 4.0 0.00 0.00 0.00 75 1009.4
20260905201056 75 30 1.0 4.0 0.00 0.00 0.00 75 1009.3
20260905200557 75 0 1.0 4.0 0.00 0.00 0.00 76 1009.4
20260905200130 75 31 1.0 4.0 0.00 0.00 0.00 74 1009.3
20260905195559 75 0 1.0 6.0 0.00 0.00 0.00 76 1009.3
20260905195057 75 33 1.0 6.0 0.00 0.00 0.00 73 1009.4
20260905194601 75 34 1.0 4.0 0.00 0.00 0.00 72 1009.4
20260905194101 75 0 0.0 4.0 0.00 0.00 0.00 76 1009.3
20260905193557 75 0 0.0 4.0 0.00 0.00 0.00 73 1009.3
20260905193103 74 82 2.0 5.0 0.00 0.00 0.00 75 1009.3
20260905192559 74 82 2.0 9.0 0.00 0.00 0.00 74 1009.3
20260905192058 74 86 2.0 9.0 0.00 0.00 0.00 72 1009.4
20260905191605 75 60 5.0 9.0 0.00 0.00 0.00 69 1009.4
20260905191054 76 40 2.0 5.0 0.00 0.00 0.00 70 1009.3
20260905190555 76 0 0.0 0.0 0.00 0.00 0.00 72 1009.2
20260905185557 74 0 0.0 3.0 0.00 0.00 0.00 75 1009.3
20260905185101 74 0 0.0 4.0 0.00 0.00 0.00 75 1009.2
20260905184603 74 0 1.0 7.0 0.00 0.00 0.00 74 1009.2
20260905184057 75 24 2.0 9.0 0.00 0.00 0.00 73 1009.3
20260905183557 75 55 3.0 9.0 0.00 0.00 0.00 71 1009.5
20260905183105 76 343 3.0 8.0 0.00 0.00 0.00 70 1009.3
20260905182557 76 57 2.0 8.0 0.00 0.00 0.00 69 1009.3
20260905182058 77 305 1.0 5.0 0.00 0.00 0.00 69 1009.3
20260905181603 77 307 2.0 5.0 0.00 0.00 0.00 68 1009.3
20260905181054 76 39 1.0 7.0 0.00 0.00 0.00 70 1009.3
20260905180557 75 38 3.0 11.0 0.00 0.00 0.00 68 1009.4
20260905180115 76 53 3.0 11.0 0.00 0.00 0.00 68 1009.4
20260905175557 76 61 4.0 10.0 0.00 0.00 0.00 67 1009.6
20260905175059 78 5 3.0 8.0 0.00 0.00 0.00 64 1009.5
20260905174605 78 293 3.0 7.0 0.00 0.00 0.00 65 1009.5
20260905174058 78 20 2.0 6.0 0.00 0.00 0.00 65 1009.4
20260905173601 78 297 2.0 6.0 0.00 0.00 0.00 69 1009.4
20260905173129 78 335 2.0 7.0 0.00 0.00 0.00 71 1009.5
20260905172557 76 280 2.0 8.0 0.00 0.00 0.00 72 1009.5
20260905172058 77 330 2.0 8.0 0.00 0.00 0.00 70 1009.4
20260905171603 78 14 1.0 8.0 0.00 0.00 0.00 63 1009.4
20260905171057 78 320 2.0 8.0 0.00 0.00 0.00 69 1009.5
20260905170557 78 57 2.0 8.0 0.00 0.00 0.00 67 1009.6
20260905170105 78 288 4.0 8.0 0.00 0.00 0.00 66 1009.5
20260905165557 77 142 3.0 8.0 0.00 0.00 0.00 67 1009.5
20260905165059 77 53 4.0 9.0 0.00 0.00 0.00 66 1009.6
20260905164615 77 5 3.0 9.0 0.00 0.00 0.00 71 1009.5
20260905164059 78 17 4.0 9.0 0.00 0.00 0.00 64 1009.4
20260905163556 77 23 3.0 9.0 0.00 0.00 0.00 66 1009.4
20260905163105 77 17 5.0 10.0 0.00 0.00 0.00 65 1009.5
20260905162558 77 289 3.0 10.0 0.00 0.00 0.00 68 1009.4
20260905162059 77 347 4.0 9.0 0.00 0.00 0.00 71 1009.4
20260905161604 77 318 3.0 8.0 0.00 0.00 0.00 72 1009.5
20260905161057 77 22 2.0 9.0 0.00 0.00 0.00 75 1009.6
20260905160557 77 26 5.0 9.0 0.00 0.00 0.00 69 1009.5
20260905155557 77 340 2.0 9.0 0.00 0.00 0.00 71 1009.6
20260905155100 77 11 3.0 11.0 0.00 0.00 0.00 71 1009.4
20260905154606 76 360 2.0 11.0 0.00 0.00 0.00 70 1009.5
20260905154058 76 59 4.0 11.0 0.00 0.00 0.00 70 1009.6
20260905153601 77 39 4.0 10.0 0.00 0.00 0.00 74 1009.8
20260905153104 76 314 3.0 11.0 0.00 0.00 0.00 76 1009.7
20260905152557 75 37 4.0 11.0 0.00 0.00 0.00 75 1009.7
20260905152057 75 57 4.0 11.0 0.00 0.00 0.00 74 1009.7
20260905151558 74 279 2.0 10.0 0.00 0.00 0.00 76 1009.8
20260905151057 74 350 4.0 10.0 0.00 0.00 0.00 74 1009.9
20260905150559 75 56 1.0 10.0 0.00 0.00 0.00 75 1009.8
20260905150104 76 304 2.0 10.0 0.00 0.00 0.00 76 1009.8
20260905145557 76 288 3.0 10.0 0.00 0.00 0.00 74 1009.8
20260905145056 75 319 3.0 9.0 0.00 0.00 0.00 78 1009.9
20260905144602 74 24 3.0 8.0 0.00 0.00 0.00 73 1009.8
20260905144056 74 5 4.0 8.0 0.00 0.00 0.00 74 1009.9
20260905143554 75 225 2.0 5.0 0.00 0.00 0.00 75 1009.8
20260905143105 75 344 2.0 8.0 0.00 0.00 0.00 77 1009.7
20260905142553 74 5 3.0 8.0 0.00 0.00 0.00 77 1009.6
20260905142056 74 281 2.0 7.0 0.00 0.00 0.00 79 1009.6
20260905141612 74 281 3.0 8.0 0.00 0.00 0.00 77 1009.7
20260905141058 74 299 3.0 8.0 0.00 0.00 0.00 78 1009.7
20260905140557 74 282 2.0 8.0 0.00 0.00 0.00 80 1009.7
20260905140107 73 279 2.0 9.0 0.00 0.00 0.00 79 1009.7
20260905135557 73 36 3.0 9.0 0.00 0.00 0.00 78 1009.7
20260905135054 73 290 2.0 8.0 0.00 0.00 0.00 80 1009.8
20260905134605 72 15 3.0 8.0 0.00 0.00 0.00 79 1009.8
20260905134054 72 302 2.0 5.0 0.00 0.00 0.00 81 1010.0
20260905133556 71 323 1.0 6.0 0.00 0.00 0.00 80 1009.9
20260905133105 71 342 1.0 6.0 0.00 0.00 0.00 80 1010.0
20260905132557 72 21 2.0 9.0 0.00 0.00 0.00 78 1010.0
20260905132058 72 24 3.0 9.0 0.00 0.00 0.00 78 1010.0
20260905131605 72 349 4.0 10.0 0.00 0.00 0.00 76 1010.2
20260905131057 71 360 1.0 10.0 0.00 0.00 0.00 79 1010.1
20260905130558 71 9 2.0 8.0 0.00 0.00 0.00 80 1010.1
20260905125555 71 13 2.0 9.0 0.00 0.00 0.00 82 1010.2
20260905125057 70 344 1.0 9.0 0.00 0.00 0.00 84 1010.1
20260905124601 69 25 2.0 9.0 0.00 0.00 0.00 85 1010.1
20260905124057 68 319 1.0 4.0 0.00 0.00 0.00 87 1010.2
20260905123557 67 346 1.0 7.0 0.00 0.00 0.00 90 1010.1
20260905123108 65 300 1.0 7.0 0.00 0.00 0.00 91 1010.3
20260905122554 64 291 2.0 6.0 0.00 0.00 0.00 92 1010.2
20260905122100 64 0 2.0 6.0 0.00 0.00 0.00 91 1010.2
20260905121606 64 0 1.0 4.0 0.00 0.00 0.00 91 1010.2
20260905121103 63 338 0.0 5.0 0.00 0.00 0.00 91 1010.2
20260905120557 63 333 1.0 5.0 0.00 0.00 0.00 91 1010.2
20260905120111 63 0 0.0 4.0 0.00 0.00 0.00 91 1010.2
20260905115555 63 335 0.0 5.0 0.00 0.00 0.00 91 1010.1
20260905115057 63 336 0.0 5.0 0.00 0.00 0.00 91 1010.1
20260905114610 63 5 1.0 5.0 0.00 0.00 0.00 91 1010.0
20260905114057 63 11 1.0 6.0 0.00 0.00 0.00 91 1009.9
20260905113554 62 19 0.0 7.0 0.00 0.00 0.00 91 1009.9
20260905113112 62 61 1.0 7.0 0.00 0.00 0.00 91 1009.8
20260905112554 62 36 1.0 6.0 0.00 0.00 0.00 90 1009.7
20260905112054 62 0 1.0 6.0 0.00 0.00 0.00 90 1009.7
20260905111655 62 21 2.0 6.0 0.00 0.00 0.00 90 1009.7
20260905111057 62 0.0 0.0 0.00 0.00 0.00 90 1009.6
20260905110556 62 0.0 0.0 0.00 0.00 0.00 89 1009.5
20260905105557 62 0.0 0.0 0.00 0.00 0.00 89 1009.5
20260905105059 62 0.0 0.0 0.00 0.00 0.00 88 1009.3
20260905104606 62 0.0 0.0 0.00 0.00 0.00 88 1009.3
20260905104057 62 0.0 0.0 0.00 0.00 0.00 88 1009.3
20260905103557 62 0.0 0.0 0.00 0.00 0.00 88 1009.3
20260905103105 62 0.0 0.0 0.00 0.00 0.00 88 1009.4
20260905102557 62 0.0 0.0 0.00 0.00 0.00 88 1009.2
20260905102057 62 0.0 0.0 0.00 0.00 0.00 88 1009.0
20260905101600 63 0.0 0.0 0.00 0.00 0.00 88 1009.1
20260905101056 63 0.0 0.0 0.00 0.00 0.00 88 1009.0
20260905100557 63 0.0 0.0 0.00 0.00 0.00 88 1009.1
20260905100107 63 0.0 0.0 0.00 0.00 0.00 88 1009.1
20260905095554 63 0.0 0.0 0.00 0.01 0.00 88 1009.0
20260905095057 63 0.0 0.0 0.00 0.01 0.00 88 1009.1
20260905094605 63 0.0 0.0 0.00 0.01 0.00 88 1009.0
20260905094055 63 0.0 0.0 0.00 0.01 0.00 87 1009.0
20260905093555 63 0.0 0.0 0.00 0.01 0.00 87 1008.9
20260905093122 63 0.0 0.0 0.00 0.01 0.00 87 1008.8
20260905092555 63 0.0 0.0 0.00 0.01 0.00 87 1008.8
20260905092055 63 0.0 0.0 0.00 0.01 0.00 87 1008.8
20260905091600 64 0.0 0.0 0.00 0.01 0.00 86 1008.8
20260905091057 64 0.0 0.0 0.00 0.01 0.00 86 1008.9
20260905090557 64 0.0 0.0 0.00 0.01 0.00 86 1008.9
20260905090105 64 0.0 0.0 0.00 0.01 0.00 86 1009.0
20260905085557 64 0.0 0.0 0.00 0.34 0.00 86 1008.9
20260905085058 64 0.0 0.0 0.00 0.34 0.00 86 1008.9
20260905084603 64 0.0 0.0 0.00 0.34 0.00 85 1009.0
20260905084054 65 0.0 0.0 0.00 0.34 0.00 85 1009.0
20260905083554 65 0.0 0.0 0.00 0.34 0.00 85 1008.9
20260905083103 65 0.0 0.0 0.00 0.34 0.00 85 1008.9
20260905082555 65 0.0 0.0 0.00 0.34 0.00 85 1009.0
20260905082057 65 0.0 0.0 0.00 0.34 0.00 85 1008.9
20260905081601 65 0.0 0.0 0.00 0.34 0.00 85 1008.9
20260905081053 65 0.0 0.0 0.00 0.34 0.00 85 1008.9
20260905080600 65 0.0 0.0 0.00 0.34 0.00 85 1009.0
20260905080106 65 0.0 0.0 0.00 0.34 0.00 85 1009.0
20260905075557 65 0.0 0.0 0.00 0.41 0.00 85 1009.0
20260905075053 66 0.0 0.0 0.00 0.41 0.00 85 1009.0
20260905074613 66 0.0 0.0 0.00 0.41 0.00 85 1008.9
20260905074057 66 0.0 0.0 0.00 0.41 0.00 85 1008.9
20260905073553 66 0.0 0.0 0.00 0.41 0.00 85 1008.8
20260905073105 66 0.0 0.0 0.00 0.41 0.00 85 1008.8
20260905072554 66 0.0 0.0 0.00 0.41 0.00 85 1008.9
20260905072101 66 0.0 0.0 0.00 0.41 0.00 85 1008.8
20260905071600 66 0.0 0.0 0.00 0.41 0.00 85 1008.9
20260905071057 66 0.0 0.0 0.00 0.41 0.00 85 1008.9
20260905070600 66 0.0 0.0 0.00 0.41 0.00 85 1008.9
20260905065556 66 0.0 0.0 0.00 0.61 0.00 85 1008.9
20260905065056 66 0.0 0.0 0.00 0.61 0.00 85 1009.0
20260905064633 66 0.0 0.0 0.00 0.61 0.00 85 1009.0
20260905064054 66 0.0 0.0 0.00 0.61 0.00 85 1009.0
20260905063553 66 0.0 0.0 0.00 0.61 0.00 85 1009.0
20260905063103 66 0.0 0.0 0.00 0.61 0.00 84 1009.1
20260905062553 66 0.0 0.0 0.00 0.61 0.00 84 1009.1
20260905062056 66 0.0 0.0 0.00 0.61 0.00 84 1009.1
20260905061601 66 0.0 0.0 0.00 0.61 0.00 84 1009.3
20260905061056 66 0.0 0.0 0.00 0.61 0.00 84 1009.3
20260905060553 66 0.0 0.0 0.00 0.61 0.00 84 1009.4
20260905060057 66 0.0 0.0 0.00 0.61 0.00 84 1009.5
20260905055554 66 0.0 0.0 0.00 0.61 0.00 84 1009.4
20260905055056 67 0.0 0.0 0.00 0.61 0.00 84 1009.5
20260905054609 67 0.0 0.0 0.00 0.61 0.00 85 1009.6
20260905054056 67 0.0 0.0 0.00 0.61 0.00 85 1009.5
20260905053556 67 0.0 0.0 0.00 0.61 0.00 85 1009.6
20260905053104 66 0.0 0.0 0.00 0.61 0.00 85 1009.7
20260905052553 66 0.0 0.0 0.00 0.61 0.00 85 1009.6
20260905052053 66 0.0 0.0 0.00 0.61 0.00 85 1009.7
20260905051608 66 0.0 0.0 0.00 0.61 0.00 85 1009.8
20260905051053 66 0.0 0.0 0.00 0.61 0.00 86 1009.8
20260905050558 66 0.0 0.0 0.00 0.61 0.00 86 1009.8
20260905045555 66 0.0 0.0 0.00 0.61 0.00 86 1009.9
20260905045056 66 0.0 0.0 0.00 0.61 0.00 86 1010.1
20260905044611 66 0.0 0.0 0.00 0.61 0.00 87 1010.0
20260905044056 66 0.0 0.0 0.00 0.61 0.00 87 1010.1
20260905043557 66 0.0 0.0 0.00 0.61 0.00 87 1010.2
20260905043107 66 0.0 0.0 0.00 0.61 0.00 87 1010.0
20260905042557 66 0.0 0.0 0.00 0.61 0.00 88 1010.0
20260905042057 66 0.0 0.0 0.00 0.61 0.00 88 1010.1
20260905041604 66 0.0 0.0 0.00 0.61 0.00 88 1010.1
20260905041059 66 0.0 0.0 0.00 0.61 0.00 88 1010.1
20260905040558 66 0.0 0.0 0.00 0.61 0.00 89 1010.2
20260905040110 66 0.0 0.0 0.00 0.61 0.00 89 1010.1
20260905035558 66 0.0 0.0 0.00 0.61 0.61 90 1010.2
20260905035056 66 0.0 0.0 0.00 0.61 0.61 90 1010.3
20260905034610 66 0.0 0.0 0.00 0.61 0.61 91 1010.2
20260905034059 65 0.0 0.0 0.00 0.61 0.61 91 1010.1
20260905033557 65 0.0 0.0 0.00 0.61 0.61 92 1010.1
20260905033103 65 0.0 0.0 0.00 0.61 0.61 92 1010.1
20260905032558 65 0.0 0.0 0.00 0.61 0.61 92 1010.1
20260905032057 65 0.0 0.0 0.00 0.61 0.61 92 1010.1
20260905031601 65 0.0 0.0 0.00 0.61 0.61 92 1010.2
20260905031056 65 0.0 0.0 0.00 0.61 0.61 93 1010.1
20260905030556 65 0.0 0.0 0.00 0.61 0.61 93 1010.0
20260905030119 66 0.0 0.0 0.00 0.61 0.61 93 1010.0
20260905025555 66 0.0 0.0 0.00 0.61 0.61 93 1010.1
20260905025057 66 0.0 0.0 0.00 0.61 0.61 93 1010.0
20260905024607 66 0.0 0.0 0.00 0.61 0.61 93 1009.9
20260905024056 66 0.0 0.0 0.00 0.61 0.61 93 1009.9
20260905023602 67 0.0 0.0 0.00 0.61 0.61 93 1010.0
20260905023103 67 0.0 0.0 0.00 0.61 0.61 92 1010.0
20260905022555 67 0.0 0.0 0.00 0.61 0.61 92 1010.1
20260905022056 67 0.0 0.0 0.00 0.61 0.61 92 1010.1
20260905021611 67 0.0 0.0 0.00 0.61 0.61 92 1010.1
20260905021059 67 0.0 0.0 0.00 0.61 0.61 92 1010.1
20260905020555 67 0.0 0.0 0.00 0.61 0.61 92 1010.0
20260905020107 67 0.0 0.0 0.00 0.61 0.61 92 1010.0
20260905015555 67 0.0 0.0 0.00 0.61 0.61 92 1010.1
20260905015055 67 0.0 0.0 0.00 0.61 0.61 91 1010.1
20260905014606 67 0.0 0.0 0.00 0.61 0.61 91 1010.0
20260905014056 68 0.0 0.0 0.00 0.61 0.61 91 1009.9
20260905013555 68 0.0 0.0 0.00 0.61 0.61 91 1009.8
20260905013104 68 0.0 0.0 0.00 0.61 0.61 90 1010.0